Location: Taupo
(38.6830°S, 176.0830°E)
Time: 15:04:12
(UTC+13:00)

Cosmos 2322 - Pass Details

Date: 24 January 2019
Orbit: 839 x 856 km, 71.0° (Epoch: 19 February)

Event Time Altitude Azimuth Distance (km) Brightness Sun altitude
Exits shadow 23:18:16 25° 323° (NW) 1,656 5.0 -24.6°
Maximum altitude 23:21:39 67° 246° (WSW) 923 4.0 -25.0°
Drops below altitude 10° 23:27:21 10° 163° (SSE) 2,491 6.6 -25.6°
Sets 23:29:51 0° 159° (SSE) 3,431 7.4 -25.8°
